Fortuna, CA

2:44 AM PDT on September 17, 2019 (GMT -0700)
Rohnerville

Weather History for KFOT - July, 2019

Change the Weather History Date:

Wednesday, July 24, 2019

  Actual Average (WUND) Record (WUND)
Temperature  
Mean Temperature 60 °F -  
Max Temperature 68 °F - - (-1)
Min Temperature 51 °F - - (-1)
Degree Days  
Heating Degree Days 6    
Growing Degree Days 10 (Base 50)    
Moisture  
Dew Point 53 °F    
Average Humidity 82    
Maximum Humidity 100    
Minimum Humidity 60    
Precipitation  
Precipitation 0.00 in - - ()
Sea Level Pressure  
Sea Level Pressure 30.10 in    
Wind  
Wind Speed 6 mph (WNW)    
Max Wind Speed 17 mph    
Max Gust Speed 23 mph    
Visibility 10 miles    
Events      
Averages and records for this station are not official NWS values.
T = Trace of Precipitation, MM = Missing Value Source: NWS Daily Summary

Daily Weather History Graph

Daily Weather History Graph

Search for Another Location

Airport or City:

Astronomy

Jul. 24, 2019 Rise Set
Actual Time 6:06 AM PDT 8:39 PM PDT
Civil Twilight 5:34 AM PDT 9:10 PM PDT
Nautical Twilight 4:55 AM PDT 9:49 PM PDT
Astronomical Twilight 4:11 AM PDT 10:33 PM PDT
Moon 12:28 AM PDT (7/24) 1:24 PM PDT (7/24)
Length of Visible Light 15h 36m
Length of Day
14h 33m
Waning Gibbous, 53% of the Moon is Illuminated
Jul 24
Waning Gibbous
Jul 24
Last Quarter
Jul 31
New
Aug 7
First Quarter
Aug 15
Full

Hourly Weather History & Observations

Time (PDT) Temp. Dew Point Humidity Pressure Visibility Wind Dir Wind Speed Gust Speed Precip Events Conditions
12:05 AM 55.4 °F 53.6 °F 94% 30.17 in 10.0 mi WNW 4.6 mph - N/A   Overcast
12:40 AM 55.4 °F 53.6 °F 94% 30.17 in 10.0 mi West 3.5 mph - N/A   Overcast
1:10 AM 55.4 °F 53.6 °F 94% 30.16 in 10.0 mi Calm Calm - N/A   Overcast
1:25 AM 55.4 °F 53.6 °F 94% 30.16 in 10.0 mi Calm Calm - N/A   Overcast
1:50 AM 53.6 °F 53.6 °F 100% 30.15 in 10.0 mi NW 3.5 mph - N/A   Scattered Clouds
2:10 AM 53.6 °F 51.8 °F 94% 30.15 in 8.0 mi NW 3.5 mph - N/A   Partly Cloudy
2:30 AM 53.6 °F 53.6 °F 100% 30.14 in 8.0 mi NW 4.6 mph - N/A   Mostly Cloudy
2:45 AM 53.6 °F 53.6 °F 100% 30.14 in 7.0 mi WNW 3.5 mph - N/A   Overcast
3:10 AM 53.6 °F 53.6 °F 100% 30.14 in 10.0 mi NW 3.5 mph - N/A   Overcast
3:25 AM 53.6 °F 53.6 °F 100% 30.14 in 10.0 mi WNW 3.5 mph - N/A   Overcast
4:10 AM 53.6 °F 53.6 °F 100% 30.13 in 9.0 mi Calm Calm - N/A   Overcast
4:30 AM 55.4 °F 53.6 °F 94% 30.13 in 10.0 mi Calm Calm - N/A   Overcast
4:50 AM 53.6 °F 53.6 °F 100% 30.13 in 10.0 mi WNW 4.6 mph - N/A   Overcast
5:10 AM 53.6 °F 51.8 °F 94% 30.13 in 10.0 mi WNW 3.5 mph - N/A   Overcast
5:30 AM 53.6 °F 51.8 °F 94% 30.13 in 10.0 mi Calm Calm - N/A   Overcast
5:50 AM 53.6 °F 51.8 °F 94% 30.13 in 10.0 mi Calm Calm - N/A   Overcast
6:10 AM 53.6 °F 51.8 °F 94% 30.12 in 10.0 mi Calm Calm - N/A   Overcast
6:30 AM 53.6 °F 50.0 °F 88% 30.12 in 10.0 mi Calm Calm - N/A   Scattered Clouds
6:50 AM 51.8 °F 50.0 °F 94% 30.12 in 10.0 mi ESE 3.5 mph - N/A   Scattered Clouds
7:10 AM 53.6 °F 51.8 °F 94% 30.12 in 9.0 mi SE 3.5 mph - N/A   Mostly Cloudy
7:30 AM 55.4 °F 53.6 °F 94% 30.12 in 10.0 mi Calm Calm - N/A   Scattered Clouds
7:50 AM 53.6 °F 51.8 °F 94% 30.13 in 10.0 mi South 3.5 mph - N/A   Partly Cloudy
8:10 AM 55.4 °F 53.6 °F 94% 30.12 in 10.0 mi Calm Calm - N/A   Partly Cloudy
8:30 AM 57.2 °F 53.6 °F 88% 30.12 in 10.0 mi Calm Calm - N/A   Partly Cloudy
8:50 AM 59.0 °F 53.6 °F 82% 30.12 in 10.0 mi Calm Calm - N/A   Partly Cloudy
9:10 AM 59.0 °F 53.6 °F 82% 30.11 in 10.0 mi Calm Calm - N/A   Clear
9:30 AM 60.8 °F 53.6 °F 77% 30.11 in 10.0 mi WNW 5.8 mph - N/A   Clear
9:50 AM 62.6 °F 53.6 °F 72% 30.11 in 10.0 mi NNW 4.6 mph - N/A   Clear
10:10 AM 62.6 °F 55.4 °F 77% 30.10 in 10.0 mi WNW 8.1 mph - N/A   Partly Cloudy
10:30 AM 64.4 °F 55.4 °F 73% 30.10 in 10.0 mi WNW 6.9 mph - N/A   Partly Cloudy
10:50 AM 64.4 °F 55.4 °F 73% 30.10 in 10.0 mi WNW 8.1 mph - N/A   Partly Cloudy
11:10 AM 64.4 °F 55.4 °F 73% 30.10 in 10.0 mi WNW 10.4 mph - N/A   Scattered Clouds
11:30 AM 66.2 °F 55.4 °F 68% 30.10 in 10.0 mi West 10.4 mph - N/A   Partly Cloudy
11:50 AM 66.2 °F 55.4 °F 68% 30.10 in 10.0 mi NW 10.4 mph - N/A   Partly Cloudy
12:10 PM 66.2 °F 55.4 °F 68% 30.09 in 10.0 mi WNW 11.5 mph - N/A   Partly Cloudy
12:30 PM 66.2 °F 53.6 °F 64% 30.09 in 10.0 mi WNW 12.7 mph - N/A   Partly Cloudy
12:50 PM 68.0 °F 53.6 °F 60% 30.09 in 10.0 mi WNW 15.0 mph - N/A   Partly Cloudy
1:10 PM 68.0 °F 53.6 °F 60% 30.08 in 10.0 mi WNW 15.0 mph - N/A   Partly Cloudy
1:30 PM 66.2 °F 53.6 °F 64% 30.08 in 10.0 mi WNW 17.3 mph - N/A   Partly Cloudy
1:50 PM 66.2 °F 53.6 °F 64% 30.09 in 10.0 mi West 16.1 mph - N/A   Scattered Clouds
2:10 PM 66.2 °F 53.6 °F 64% 30.08 in 10.0 mi WNW 16.1 mph - N/A   Partly Cloudy
2:30 PM 66.2 °F 53.6 °F 64% 30.08 in 10.0 mi WNW 17.3 mph 23.0 mph N/A   Clear
2:50 PM 66.2 °F 53.6 °F 64% 30.08 in 10.0 mi West 16.1 mph 23.0 mph N/A   Partly Cloudy
3:10 PM 66.2 °F 53.6 °F 64% 30.08 in 10.0 mi WNW 16.1 mph 20.7 mph N/A   Partly Cloudy
3:30 PM 66.2 °F 53.6 °F 64% 30.08 in 10.0 mi West 16.1 mph - N/A   Scattered Clouds
3:50 PM 66.2 °F 53.6 °F 64% 30.08 in 10.0 mi West 13.8 mph 19.6 mph N/A   Partly Cloudy
4:10 PM 66.2 °F 53.6 °F 64% 30.08 in 10.0 mi WNW 16.1 mph - N/A   Partly Cloudy
4:30 PM 64.4 °F 53.6 °F 68% 30.08 in 10.0 mi WNW 15.0 mph 20.7 mph N/A   Partly Cloudy
4:50 PM 64.4 °F 53.6 °F 68% 30.07 in 10.0 mi West 15.0 mph 19.6 mph N/A   Clear
5:30 PM 62.6 °F 53.6 °F 72% 30.07 in 10.0 mi West 16.1 mph - N/A   Clear
5:50 PM 62.6 °F 53.6 °F 72% 30.07 in 10.0 mi WNW 15.0 mph 21.9 mph N/A   Clear
6:10 PM 62.6 °F 53.6 °F 72% 30.07 in 10.0 mi WNW 13.8 mph 19.6 mph N/A   Clear
6:30 PM 62.6 °F 53.6 °F 72% 30.07 in 10.0 mi West 13.8 mph - N/A   Partly Cloudy
6:50 PM 60.8 °F 53.6 °F 77% 30.07 in 10.0 mi WNW 13.8 mph 19.6 mph N/A   Partly Cloudy
7:10 PM 59.0 °F 53.6 °F 82% 30.07 in 10.0 mi WNW 11.5 mph - N/A   Partly Cloudy
7:30 PM 59.0 °F 53.6 °F 82% 30.07 in 10.0 mi WNW 11.5 mph - N/A   Partly Cloudy
7:50 PM 59.0 °F 53.6 °F 82% 30.07 in 10.0 mi WNW 10.4 mph - N/A   Partly Cloudy
8:10 PM 57.2 °F 53.6 °F 88% 30.08 in 9.0 mi WNW 8.1 mph - N/A   Partly Cloudy
8:30 PM 57.2 °F 53.6 °F 88% 30.07 in 9.0 mi West 6.9 mph - N/A   Clear
8:50 PM 55.4 °F 51.8 °F 88% 30.08 in 8.0 mi West 6.9 mph - N/A   Clear
9:10 PM 55.4 °F 51.8 °F 88% 30.07 in 10.0 mi WNW 5.8 mph - N/A   Clear
9:30 PM 55.4 °F 51.8 °F 88% 30.07 in 10.0 mi WNW 4.6 mph - N/A   Scattered Clouds
9:50 PM 55.4 °F 53.6 °F 94% 30.07 in 10.0 mi WNW 3.5 mph - N/A   Mostly Cloudy
10:10 PM 55.4 °F 53.6 °F 94% 30.07 in 10.0 mi Calm Calm - N/A   Overcast
10:30 PM 55.4 °F 53.6 °F 94% 30.07 in 10.0 mi Calm Calm - N/A   Overcast
10:50 PM 55.4 °F 53.6 °F 94% 30.06 in 10.0 mi Calm Calm - N/A   Overcast
11:10 PM 55.4 °F 53.6 °F 94% 30.06 in 10.0 mi Calm Calm - N/A   Overcast
11:30 PM 57.2 °F 53.6 °F 88% 30.05 in 10.0 mi Calm Calm - N/A   Overcast
11:50 PM 57.2 °F 53.6 °F 88% 30.05 in 10.0 mi Calm Calm - N/A   Overcast